COSMOS 1383

Satellite information

Favourite Embed

Satellite Type and Status

PAYLOADIN ORBIT

Key statistics

Satellite COSMOS 1383 at a glance.

Uptime

15654

Days in orbit

Revolutions

≈ 13.7

Per day

Orbit

LEO

Low Earth Orbit

Inclination

82.9

Latest

Satellite identification and parameters

Extended collection of information and parameters for COSMOS 1383.

Object identification

Identified? True

Debris? False

Object name: COSMOS 1383

International designator: 1982-066A

Object number (NORAD): 13301

Object ID (CCSDS): 13301

Country: COMMONWEALTH OF INDEPENDENT STATES (CIS)

Current information (Y/N): Y

RCS size: LARGE

Orbital parameters

Period: 105.196 minutes

Inclination: 82.9293 deg

SMA: 7381.779 km

Apoapsis: 1022.856 km

Periapsis: 984.432 km

RAAN: 311.5299 deg

Eccentricy: 0.0026026

Argument of periapsis: 297.6945 deg

Mean anomaly: 227.8822 deg

Mean motion: 13.68866843 rev/day

Mean motion (dot): 0.00000083 rev/day2

B* drag term: 0.000079551 1/REarth

Two-line elements (TLE)

Creation date: May 8, 2025, 3:01 a.m.

Reference frame: TEME

Reference center: EARTH

Epoch: May 7, 2025, 10:39 p.m. UTC

TLE line 0: 0 COSMOS 1383

TLE line 1: 1 13301U 82066A 25127.94442969 .00000083 00000-0 79551-4 0 9996

TLE line 2: 2 13301 82.9293 311.5299 0026026 297.6945 227.8822 13.68866843140268

Live tracking on map

Real-time ground track for satellite COSMOS 1383.

In-orbit conjunctions

A list of the most updated potential collisions computed for object COSMOS 1383.

Target Orbit TCA Probability of collision Miss distance Type
NIMBUS 2 DEB SSO 2024-07-07 16:05:05 0.0001213108 423.0 (m) DEBRIS

Associated space launch

Civilian navigation satellite equivalent to the purely military Parus

COSMOS 1383 was lifted into orbit during the mission ‘Kosmos-3M | Nadezhda 1’, on board a Kosmos-3M space rocket.

The launch took place on June 29, 1982, 9:45 p.m. from 132/1 (132L).

For more information about the launch, click the button.

Launch to space Kosmos-3M | Nadezhda 1
Kosmos-3M | Nadezhda 1

Agency: N/A

Status: Launch Successful

Launch date: June 29, 1982, 9:45 p.m. UTC

Rocket: Kosmos-3M

Launch pad: 132/1 (132L)

Location: Plesetsk Cosmodrome, Russian Federation

...

Latest news about this satellite

There are no fresh news available about this satellite. Check back as we update our databases every day.


Newsletter sign-up

Weekly statistics, charts and insights to help you stay on top of the space industry.